| time (UTC) | temp C | wind direction | speed KPH | gust KPH | rain 1hr cm | rain 24hr cm | rain mn cm | humidity % | barometer mb |
| 20260508032213 | 5 | 0 | 3.2 | 0.0 | 0.00 | 0.00 | 0.00 | 99 | |
| 20260508022155 | 6 | 0 | 3.2 | 0.0 | 0.00 | 0.00 | 0.00 | 86 | |
| 20260508012311 | 6 | 360 | 8.0 | 0.0 | 0.00 | 0.00 | 0.00 | 93 | |
| 20260508002211 | 6 | 50 | 11.3 | 0.0 | 0.00 | 0.00 | 0.00 | 93 | |
| 20260507232212 | 6 | 40 | 11.3 | 0.0 | 0.00 | 0.00 | 0.00 | 86 | |
| 20260507222518 | 6 | 360 | 14.5 | 0.0 | 0.00 | 0.00 | 0.00 | 93 | |
| 20260507212214 | 5 | 330 | 14.5 | 0.0 | 0.00 | 0.00 | 0.00 | 93 | |
| 20260507202214 | 7 | 30 | 19.3 | 0.0 | 0.00 | 0.00 | 0.00 | 93 | |
| 20260507192316 | 7 | 360 | 11.3 | 0.0 | 0.00 | 0.00 | 0.00 | 87 | |
| 20260507182245 | 7 | 240 | 11.3 | 0.0 | 0.00 | 0.00 | 0.00 | 87 | |
| 20260507172229 | 10 | 0 | 8.0 | 0.0 | 0.00 | 0.00 | 0.00 | 81 | |
| 20260507162533 | 8 | 0 | 8.0 | 0.0 | 0.00 | 0.00 | 0.00 | 87 | |
| 20260507152214 | 10 | 0 | 8.0 | 0.0 | 0.00 | 0.00 | 0.00 | 81 | |
| 20260507142214 | 8 | 270 | 14.5 | 0.0 | 0.00 | 0.00 | 0.00 | 87 | |
| 20260507132315 | 10 | 280 | 11.3 | 0.0 | 0.00 | 0.00 | 0.00 | 76 | |
| 20260507122213 | 12 | 0 | 8.0 | 0.0 | 0.00 | 0.00 | 0.00 | 71 | |
| 20260507112229 | 12 | 0 | 8.0 | 0.0 | 0.00 | 0.00 | 0.00 | 71 | |
| 20260507102413 | 12 | 0 | 8.0 | 0.0 | 0.00 | 0.00 | 0.00 | 71 | |
| 20260507092213 | 11 | 0 | 8.0 | 0.0 | 0.00 | 0.00 | 0.00 | 76 | |
| 20260507082212 | 10 | 0 | 8.0 | 0.0 | 0.00 | 0.00 | 0.00 | 81 | |
| 20260507072214 | 10 | 250 | 14.5 | 0.0 | 0.00 | 0.00 | 0.00 | 87 | |
| 20260507062212 | 7 | 210 | 19.3 | 0.0 | 0.00 | 0.00 | 0.00 | 93 | |
| 20260507052212 | 7 | 200 | 19.3 | 0.0 | 0.00 | 0.00 | 0.00 | 99 | |
| 20260507042414 | 7 | 200 | 11.3 | 0.0 | 0.00 | 0.00 | 0.00 | 99 |